Location: El Gallo
(32.4380°N, 116.9347°W)
Time: 19:23:56
(UTC+00:00)

Cosmos 1697 Rocket - Pass Details

Date: 01 October 2022
Orbit: 831 x 845 km, 71.0° (Epoch: 01 December)

Event Time Altitude Azimuth Distance (km) Brightness Sun altitude
Rises 12:08:07 0° 332° (NNW) 3,397 5.7 -20.5°
Reaches altitude 10° 12:10:38 10° 327° (NNW) 2,461 4.9 -20.0°
Maximum altitude 12:16:01 47° 255° (WSW) 1,102 2.8 -18.9°
Drops below altitude 10° 12:21:24 10° 182° (S) 2,454 5.0 -17.8°
Sets 12:23:54 0° 177° (S) 3,386 5.8 -17.2°
